{"data":{"norad_id":60042,"intl_designator":"2024-112E","name":"STARLINK-11120 [DTC]","alt_names":[],"object_type":"PAYLOAD","status":"ACTIVE","operator":null,"country":"US","launch_date":"2024-06-08","launch_site_code":"AFWTR","launch_vehicle":null,"mission":null,"orbit_class":"UNKNOWN","rcs_meters":null,"size_class":null,"mass_kg":null,"dimensions":null,"purposes":["comms"],"wikipedia_slug":null,"has_3d_model":false,"image_url":null,"decayed_at":null,"tle_current":{"epoch":"2026-05-24T23:47:21.325920Z","epoch_age_seconds":86539,"freshness":"FRESH","line1":"1 60042U 24112E   26144.99121905  .00002621  00000+0  26483-4 0  9992","line2":"2 60042  53.1576 250.2321 0001113  77.8089 282.3054 15.69715517112961","mean_motion":15.69715517,"eccentricity":0.0001113,"inclination_deg":53.1576,"raan_deg":250.2321,"arg_perigee_deg":77.8089,"mean_anomaly_deg":282.3054,"bstar":2.6483e-5,"rev_number":11296,"period_min":91.736367794343,"perigee_km":358.96104044554,"apogee_km":360.46088540209,"semimajor_km":6737.8479629238,"source":"CELESTRAK","updated_at":"2026-05-25T13:38:19.152733Z"}}}